Location: *
(48.8489°N, 2.3218°E)
Time: 14:13:05
(UTC+00:00)

Cosmos 1340 - Pass Details

Date: 23 August 2019
Orbit: 503 x 506 km, 81.2° (Epoch: 17 September)

Event Time Altitude Azimuth Distance (km) Brightness Sun altitude
Exits shadow 21:08:50 63° 149° (SSE) 565 2.5 -19.8°
Maximum altitude 21:09:15 72° 100° (E) 535 2.5 -19.8°
Drops below altitude 10° 21:13:02 10° 15° (NNE) 1,726 5.7 -20.2°
Sets 21:15:10 0° 14° (NNE) 2,617 6.8 -20.5°
